This demonstration page uses our WeatherBlox Daily Observations layout. Learn more.

Left ArrowRight Arrow

Hourly Observations for January 7, 2017

Temp ( °F °C ) Dew Point ( °F °C ) Humidity (%) Winds ( mph kmh ) Pressure ( in mb ) Visibility ( mi km ) Precip ( " mm )
12:14 am 00:14 Clear 5 -15 -2 -19 72 72 NW 5 7 30.48 1032 10 16.0934 N/A
12:35 am 00:35 Clear 5 -15 -2 -19 72 72 WNW 5 7 30.48 1032 10 16.0934 N/A
12:55 am 00:55 Clear 3 -16 -2 -19 78 78 WNW 6 9 30.48 1032 10 16.0934 N/A
1:15 am 01:15 Clear 3 -16 -2 -19 78 78 NW 6 9 30.48 1032 10 16.0934 N/A
1:35 am 01:35 Clear 5 -15 0 -18 78 78 NW 6 9 30.48 1032 10 16.0934 N/A
1:55 am 01:55 Clear 5 -15 0 -18 78 78 NW 8 13 30.48 1032 10 16.0934 N/A
2:15 am 02:15 Clear 3 -16 0 -18 85 85 NW 6 9 30.48 1032 10 16.0934 N/A
2:34 am 02:34 Clear 3 -16 -2 -19 78 78 NW 8 13 30.5 1033 10 16.0934 N/A
2:55 am 02:55 Clear 3 -16 -2 -19 78 78 NW 5 7 30.5 1033 10 16.0934 N/A
3:15 am 03:15 Clear 3 -16 -2 -19 78 78 WNW 6 9 30.5 1033 10 16.0934 N/A
3:35 am 03:35 Clear 1 -17 -2 -19 85 85 WNW 6 9 30.53 1034 10 16.0934 N/A
3:55 am 03:55 Clear 1 -17 -4 -20 78 78 WNW 6 9 30.53 1034 10 16.0934 N/A
4:15 am 04:15 Clear 0 -18 -4 -20 84 84 WNW 5 7 30.53 1034 10 16.0934 N/A
4:35 am 04:35 Clear 0 -18 -4 -20 84 84 WNW 6 9 30.53 1034 10 16.0934 N/A
4:55 am 04:55 Clear 0 -18 -6 -21 78 78 WNW 5 7 30.53 1034 10 16.0934 N/A
5:15 am 05:15 Clear 0 -18 -4 -20 84 84 WNW 5 7 30.53 1034 10 16.0934 N/A
5:35 am 05:35 Clear 0 -18 -6 -21 78 78 WNW 6 9 30.53 1034 10 16.0934 N/A
5:54 am 05:54 Clear 0 -18 -6 -21 78 78 NW 5 7 30.53 1034 10 16.0934 N/A
6:15 am 06:15 Clear 0 -18 -6 -21 78 78 WNW 6 9 30.56 1035 10 16.0934 N/A
6:35 am 06:35 Clear -2 -19 -8 -22 77 77 W 3 6 30.56 1035 10 16.0934 N/A
6:54 am 06:54 Clear -2 -19 -6 -21 84 84 WNW 3 6 30.56 1035 10 16.0934 N/A
7:15 am 07:15 Clear -2 -19 -8 -22 77 77 W 5 7 30.56 1035 10 16.0934 N/A
7:35 am 07:35 Clear -2 -19 -8 -22 77 77 W 3 6 30.56 1035 10 16.0934 N/A
7:55 am 07:55 Clear -2 -19 -8 -22 77 77 W 6 9 30.59 1036 10 16.0934 N/A
8:15 am 08:15 Sunny -4 -20 -8 -22 84 84 W 3 6 30.59 1036 10 16.0934 N/A
8:35 am 08:35 Sunny -2 -19 -8 -22 77 77 W 5 7 30.59 1036 10 16.0934 N/A
8:55 am 08:55 Sunny 0 -18 -6 -21 78 78 WSW 6 9 30.62 1037 10 16.0934 N/A
9:15 am 09:15 Sunny 1 -17 -4 -20 78 78 W 7 11 30.62 1037 10 16.0934 N/A
9:34 am 09:34 Sunny 3 -16 -4 -20 72 72 W 8 13 30.59 1036 10 16.0934 N/A
9:55 am 09:55 Sunny 3 -16 -4 -20 72 72 W 9 15 30.65 1038 10 16.0934 N/A
10:15 am 10:15 Sunny 5 -15 -4 -20 66 66 W 7 11 30.62 1037 10 16.0934 N/A
10:35 am 10:35 Sunny 5 -15 -4 -20 66 66 W 7 11 30.62 1037 10 16.0934 N/A
10:55 am 10:55 Sunny 7 -14 -4 -20 61 61 W 7 11 30.62 1037 10 16.0934 N/A
11:14 am 11:14 Sunny 9 -13 -4 -20 56 56 WNW 8 13 30.62 1037 10 16.0934 N/A
11:35 am 11:35 Sunny 9 -13 -4 -20 56 56 W 8 13 30.62 1037 10 16.0934 N/A
11:54 am 11:54 Sunny 9 -13 -4 -20 56 56 W 10 17 30.62 1037 10 16.0934 N/A
12:15 pm 12:15 Sunny 10 -12 -4 -20 52 52 WNW 9 15 30.62 1037 10 16.0934 N/A
12:35 pm 12:35 Sunny 10 -12 -4 -20 52 52 WNW 12 19 30.59 1036 10 16.0934 N/A
12:55 pm 12:55 Sunny 12 -11 -2 -19 52 52 WNW 12 19 30.59 1036 10 16.0934 N/A
1:15 pm 13:15 Sunny 12 -11 0 -18 57 57 NW 10 17 30.59 1036 10 16.0934 N/A
1:35 pm 13:35 Sunny 12 -11 0 -18 57 57 WNW 12 19 30.59 1036 10 16.0934 N/A
1:55 pm 13:55 Sunny 12 -11 1 -17 62 62 NW 10 17 30.59 1036 10 16.0934 N/A
2:14 pm 14:14 Sunny 14 -10 1 -17 57 57 W 10 17 30.59 1036 10 16.0934 N/A
2:35 pm 14:35 Sunny 14 -10 3 -16 62 62 WNW 10 17 30.59 1036 10 16.0934 N/A
2:55 pm 14:55 Sunny 14 -10 3 -16 62 62 WNW 12 19 30.59 1036 10 16.0934 N/A
3:15 pm 15:15 Partly Cloudy 14 -10 3 -16 62 62 WNW 12 19 30.59 1036 10 16.0934 N/A
3:35 pm 15:35 Partly Cloudy 14 -10 3 -16 62 62 W 13 20 30.59 1036 10 16.0934 N/A
3:55 pm 15:55 Sunny 14 -10 3 -16 62 62 W 12 19 30.59 1036 10 16.0934 N/A
4:15 pm 16:15 Sunny 14 -10 3 -16 62 62 W 15 24 30.59 1036 10 16.0934 N/A
4:35 pm 16:35 Sunny 14 -10 3 -16 62 62 W 10 17 30.59 1036 10 16.0934 N/A
4:54 pm 16:54 Sunny 14 -10 3 -16 62 62 W 9 15 30.59 1036 10 16.0934 N/A
5:15 pm 17:15 Sunny 12 -11 3 -16 67 67 W 10 17 30.62 1037 10 16.0934 N/A
5:35 pm 17:35 Mostly Cloudy 12 -11 5 -15 73 73 W 10 17 30.59 1036 10 16.0934 N/A
5:55 pm 17:55 Cloudy 12 -11 5 -15 73 73 W 10 17 30.59 1036 10 16.0934 N/A
6:15 pm 18:15 Cloudy 14 -10 5 -15 67 67 W 10 17 30.62 1037 10 16.0934 N/A
6:34 pm 18:34 Cloudy 14 -10 7 -14 73 73 W 12 19 30.62 1037 10 16.0934 N/A
6:55 pm 18:55 Cloudy 14 -10 7 -14 73 73 W 13 20 30.62 1037 10 16.0934 N/A
7:15 pm 19:15 Cloudy 14 -10 7 -14 73 73 W 16 26 30.62 1037 10 16.0934 N/A
7:35 pm 19:35 Cloudy 14 -10 7 -14 73 73 W 15 24 30.62 1037 10 16.0934 N/A
7:55 pm 19:55 Cloudy 14 -10 9 -13 79 79 W 14 22 30.62 1037 10 16.0934 N/A
8:14 pm 20:14 Cloudy 14 -10 9 -13 79 79 W 15 24 30.62 1037 10 16.0934 N/A
8:35 pm 20:35 Cloudy 14 -10 9 -13 79 79 W 17 28 30.62 1037 10 16.0934 N/A
8:55 pm 20:55 Cloudy 16 -9 9 -13 73 73 W 15 24 30.62 1037 10 16.0934 N/A
9:15 pm 21:15 Cloudy 14 -10 9 -13 79 79 W 13 20 30.62 1037 7 11.26538 N/A
9:35 pm 21:35 Cloudy 14 -10 9 -13 79 79 W 12 19 30.62 1037 10 16.0934 N/A
9:54 pm 21:54 Cloudy 14 -10 9 -13 79 79 W 10 17 30.62 1037 5 8.0467 N/A
10:15 pm 22:15 Cloudy 16 -9 9 -13 73 73 W 9 15 30.62 1037 7 11.26538 N/A
10:35 pm 22:35 Cloudy 16 -9 9 -13 73 73 W 14 22 30.62 1037 10 16.0934 N/A
10:55 pm 22:55 Cloudy 16 -9 9 -13 73 73 WNW 15 24 30.62 1037 10 16.0934 N/A
11:15 pm 23:15 Cloudy 14 -10 9 -13 79 79 WNW 13 20 30.65 1038 10 16.0934 N/A
11:35 pm 23:35 Partly Cloudy 14 -10 9 -13 79 79 WNW 14 22 30.65 1038 10 16.0934 N/A
11:55 pm 23:55 Clear 14 -10 7 -14 73 73 WNW 14 22 30.65 1038 10 16.0934 N/A

Powered by AerisWeather